Tracking 20232 objects as of 20-Jan-2020
HD Live streaming from Space Station
objects crossing your sky now

TITAN 3C TRANSTAGE DEB

Track TITAN 3C TRANSTAGE DEB now!


NORAD ID: 26528
Int'l Code: 1965-108AP
Perigee: 951.6 km
Apogee: 30,094.6 km
Inclination: 27.3 °
Period: 537.3 minutes
Semi major axis: 21894 km
RCS: 0.117 m2 (medium)
Launch date: December 21, 1965
Source: United States (US)
Launch site: AIR FORCE EASTERN TEST RANGE (AFETR)

Note: This is SATELLITE DEBRIS
aabbcc
Your satellite tracking list
Your tracking list is empty




NASA's NSSDC Master Catalog

Two Line Element Set (TLE):
1 26528U 65108AP  20001.42403051  .00000093  00000-0  74126-2 0  9999
2 26528  27.3113 118.3109 6655432 232.1248 244.1590  2.67985779205673
Source of the keplerian elements: AFSPC